Date String (YYYY-MM-DD hh:mm:ss) UTC,Instrument flags,Ambient pressure (hPa),Sample flow (lpm),Bypass flow (lpm),Sample temperature (°C),Ambient temperature (°C),ASC tube jacket temperature (°C),LED temperature (°C),Box temperature (°C),Sample RH (%),Span deviation,Mass concentration (μg/m³),Mass concentration (μg/m³),Mass concentration (μg/m³)
DateTimeUTC,F1_M11,P_M11,Q1_M11,Q2_M11,T1_M11,T2_M11,T3_M11,T4_M11,T5_M11,U1_M11,ZSPAN_M11,X0_M11,X2_M11,X1_M11
2022-01-26 05:00:00,,0830.0,5.00,0.00,21.7,20.9,00.0,30.8,23.2,09.0,0000.0,0005.10,0003.99,0003.93
2022-01-26 05:01:00,,0829.9,5.00,0.00,21.6,20.8,00.0,30.8,23.1,08.9,0000.0,0005.16,0003.99,0003.92
2022-01-26 05:02:00,,0829.9,5.00,0.00,21.6,21.0,00.0,30.8,23.2,08.9,0000.0,0005.16,0003.98,0003.89
2022-01-26 05:03:00,,0829.9,5.01,0.00,21.7,21.8,00.0,30.8,23.5,08.8,0000.0,0005.11,0003.95,0003.87
2022-01-26 05:04:00,,0829.9,5.01,0.00,21.9,22.5,00.0,30.9,23.8,08.8,0000.0,0004.95,0003.91,0003.84
2022-01-26 05:05:00,,0829.9,4.99,0.00,22.0,23.0,00.0,30.9,24.0,08.7,0000.0,0004.88,0003.88,0003.82
2022-01-26 05:06:00,,0829.9,5.01,0.00,22.1,22.7,00.0,30.9,23.9,08.6,0000.0,0004.82,0003.85,0003.79
2022-01-26 05:07:00,,0829.9,5.00,0.00,22.0,22.3,00.0,30.9,23.8,08.6,0000.0,0004.78,0003.83,0003.76
2022-01-26 05:08:00,,0829.9,4.99,0.00,22.0,22.0,00.0,30.9,23.7,08.6,0000.0,0004.72,0003.80,0003.73
2022-01-26 05:09:00,,0830.0,5.01,0.00,21.9,21.8,00.0,30.9,23.6,08.6,0000.0,0004.64,0003.75,0003.69
2022-01-26 05:10:00,,0830.0,4.98,0.00,21.9,21.5,00.0,30.9,23.5,08.6,0000.0,0004.60,0003.72,0003.66
2022-01-26 05:11:00,,0830.0,5.01,0.00,21.8,21.4,00.0,30.9,23.4,08.6,0000.0,0004.73,0003.70,0003.63
2022-01-26 05:12:00,,0830.0,5.00,0.00,21.8,21.2,00.0,30.9,23.3,08.6,0000.0,0004.99,0003.67,0003.60
2022-01-26 05:13:00,,0830.0,5.00,0.00,21.7,21.0,00.0,30.8,23.3,08.5,0000.0,0004.91,0003.64,0003.58
2022-01-26 05:14:00,,0829.9,5.02,0.00,21.7,20.9,00.0,30.8,23.2,08.5,0000.0,0004.89,0003.62,0003.57
2022-01-26 05:15:00,,0830.0,4.99,0.00,21.6,20.8,00.0,30.8,23.2,08.5,0000.0,0004.93,0003.62,0003.55
2022-01-26 05:16:00,,0830.0,5.01,0.00,21.6,21.1,00.0,30.8,23.2,08.4,0000.0,0004.89,0003.60,0003.53
2022-01-26 05:17:00,,0830.0,5.00,0.00,21.7,21.9,00.0,30.8,23.5,08.4,0000.0,0004.86,0003.58,0003.50
2022-01-26 05:18:00,,0830.0,5.01,0.00,21.9,22.7,00.0,30.9,23.8,08.3,0000.0,0004.80,0003.56,0003.47
2022-01-26 05:19:00,,0829.9,4.99,0.00,22.0,23.0,00.0,30.9,24.0,08.2,0000.0,0004.80,0003.54,0003.45
2022-01-26 05:20:00,,0829.9,5.00,0.00,22.1,22.6,00.0,30.9,24.0,08.2,0000.0,0004.78,0003.52,0003.43
2022-01-26 05:21:00,,0829.8,5.00,0.00,22.0,22.3,00.0,30.9,23.8,08.2,0000.0,0004.74,0003.49,0003.40
2022-01-26 05:22:00,,0829.8,4.99,0.00,22.0,22.0,00.0,30.9,23.7,08.2,0000.0,0004.61,0003.46,0003.38
2022-01-26 05:23:00,,0829.8,5.00,0.00,21.9,21.7,00.0,30.9,23.6,08.3,0000.0,0004.08,0003.44,0003.36
2022-01-26 05:24:00,,0829.8,4.99,0.00,21.9,21.4,00.0,30.9,23.5,08.3,0000.0,0004.05,0003.42,0003.34
2022-01-26 05:25:00,,0829.8,5.00,0.00,21.8,21.2,00.0,30.9,23.4,08.3,0000.0,0004.07,0003.42,0003.32
2022-01-26 05:26:00,,0829.8,5.00,0.00,21.8,21.1,00.0,30.9,23.3,08.3,0000.0,0004.07,0003.40,0003.30
2022-01-26 05:27:00,,0829.8,5.00,0.00,21.7,21.0,00.0,30.8,23.2,08.3,0000.0,0004.03,0003.39,0003.29
2022-01-26 05:28:00,,0829.8,5.00,0.00,21.7,20.9,00.0,30.8,23.2,08.3,0000.0,0004.03,0003.37,0003.28
2022-01-26 05:29:00,,0829.8,5.00,0.00,21.6,21.0,00.0,30.8,23.2,08.3,0000.0,0004.04,0003.37,0003.27
2022-01-26 05:30:00,,0829.8,5.00,0.00,21.7,21.7,00.0,30.8,23.4,08.3,0000.0,0004.01,0003.36,0003.26
2022-01-26 05:31:00,,0829.8,5.01,0.00,21.9,22.4,00.0,30.9,23.7,08.2,0000.0,0003.97,0003.34,0003.25
2022-01-26 05:32:00,,0829.8,5.00,0.00,22.0,23.0,00.0,30.9,24.0,08.1,0000.0,0003.93,0003.33,0003.24
2022-01-26 05:33:00,,0829.7,5.00,0.00,22.1,22.7,00.0,30.9,24.0,08.0,0000.0,0003.93,0003.32,0003.23
2022-01-26 05:34:00,,0829.8,5.00,0.00,22.1,22.4,00.0,30.9,23.9,08.0,0000.0,0003.82,0003.28,0003.20
2022-01-26 05:35:00,,0829.8,4.99,0.00,22.0,22.0,00.0,30.9,23.7,07.9,0000.0,0003.82,0003.26,0003.18
2022-01-26 05:36:00,,0829.8,5.01,0.00,21.9,21.7,00.0,30.9,23.6,07.9,0000.0,0003.76,0003.24,0003.15
2022-01-26 05:37:00,,0829.8,5.00,0.00,21.9,21.5,00.0,30.9,23.4,08.0,0000.0,0003.58,0003.19,0003.13
2022-01-26 05:38:00,,0829.7,5.00,0.00,21.8,21.2,00.0,30.9,23.3,08.0,0000.0,0003.56,0003.17,0003.11
2022-01-26 05:39:00,,0829.8,4.99,0.00,21.7,21.1,00.0,30.9,23.3,08.0,0000.0,0003.51,0003.15,0003.07
2022-01-26 05:40:00,,0829.8,5.00,0.00,21.7,21.0,00.0,30.8,23.2,08.0,0000.0,0003.45,0003.12,0003.02
2022-01-26 05:41:00,,0829.8,5.00,0.00,21.6,20.8,00.0,30.8,23.1,08.0,0000.0,0003.42,0003.11,0003.00
2022-01-26 05:42:00,,0829.7,5.01,0.00,21.6,21.0,00.0,30.8,23.1,08.0,0000.0,0003.40,0003.08,0002.97
2022-01-26 05:43:00,,0829.8,5.00,0.00,21.7,21.8,00.0,30.8,23.4,07.9,0000.0,0003.39,0003.05,0002.93
2022-01-26 05:44:00,,0829.8,5.00,0.00,21.9,22.6,00.0,30.9,23.7,07.9,0000.0,0003.34,0003.03,0002.91
2022-01-26 05:45:00,,0829.8,5.01,0.00,22.0,23.0,00.0,30.9,23.9,07.8,0000.0,0003.38,0003.04,0002.91
2022-01-26 05:46:00,,0829.7,4.99,0.00,22.1,22.7,00.0,30.9,23.9,07.8,0000.0,0003.36,0003.03,0002.92
2022-01-26 05:47:00,,0829.8,5.00,0.00,22.0,22.4,00.0,30.9,23.8,07.9,0000.0,0003.37,0003.05,0002.94
2022-01-26 05:48:00,,0829.7,4.99,0.00,22.0,22.0,00.0,30.9,23.7,07.9,0000.0,0003.38,0003.07,0002.96
2022-01-26 05:49:00,,0829.7,5.01,0.00,21.9,21.8,00.0,30.9,23.6,08.0,0000.0,0004.13,0003.12,0003.00
2022-01-26 05:50:00,,0829.7,5.00,0.00,21.9,21.5,00.0,30.9,23.5,08.0,0000.0,0004.53,0003.15,0003.04
2022-01-26 05:51:00,,0829.7,5.00,0.00,21.8,21.3,00.0,30.9,23.4,08.0,0000.0,0004.54,0003.15,0003.06
2022-01-26 05:52:00,,0829.7,4.99,0.00,21.8,21.1,00.0,30.9,23.3,07.9,0000.0,0004.59,0003.16,0003.08
2022-01-26 05:53:00,,0829.7,5.00,0.00,21.7,21.0,00.0,30.8,23.2,07.9,0000.0,0004.59,0003.17,0003.09
2022-01-26 05:54:00,,0829.7,4.99,0.00,21.7,20.9,00.0,30.8,23.2,07.9,0000.0,0004.60,0003.18,0003.10
2022-01-26 05:55:00,,0829.7,5.00,0.00,21.7,21.2,00.0,30.8,23.3,07.9,0000.0,0004.62,0003.19,0003.10
2022-01-26 05:56:00,,0829.7,5.00,0.00,21.8,21.9,00.0,30.8,23.6,07.9,0000.0,0004.60,0003.18,0003.09
2022-01-26 05:57:00,,0829.7,5.01,0.00,21.9,22.7,00.0,30.9,23.9,07.8,0000.0,0004.62,0003.18,0003.08
2022-01-26 05:58:00,,0829.7,5.01,0.00,22.1,22.9,00.0,30.9,24.0,07.8,0000.0,0004.62,0003.18,0003.07
2022-01-26 05:59:00,,0829.7,4.98,0.00,22.1,22.6,00.0,30.9,23.9,07.8,0000.0,0004.66,0003.18,0003.08
